{"data":{"norad_id":56359,"epoch":"2026-05-25T00:17:27.885120Z","epoch_age_seconds":80788,"freshness":"FRESH","line1":"1 56359U 23058AU  26145.01212830 -.00009423  00000+0 -64909-3 0  9991","line2":"2 56359  97.4453 144.9060 0002232  87.4159 272.7324 15.05695142169606","mean_motion":15.05695142,"eccentricity":0.0002232,"inclination_deg":97.4453,"raan_deg":144.906,"arg_perigee_deg":87.4159,"mean_anomaly_deg":272.7324,"bstar":-0.00064909,"rev_number":16960,"period_min":95.636889555695,"perigee_km":547.82646872651,"apogee_km":550.91890905163,"semimajor_km":6927.5096888891,"source":"CELESTRAK","updated_at":"2026-05-25T13:38:18.009268Z"}}